Location: Newark
(23.1300°N, 73.6109°E)
Time: 17:20:56
(UTC+00:00)

NOAA 18 - Pass Details

Date: 09 July 2020
Orbit: 839 x 862 km, 99.0° (Epoch: 05 August)

Event Time Altitude Azimuth Distance (km) Brightness Sun altitude
Exits shadow 14:55:34 13° 91° (E) 2,268 6.9 -13.1°
Maximum altitude 14:57:26 15° 69° (ENE) 2,131 7.0 -13.5°
Drops below altitude 10° 15:00:31 10° 34° (NE) 2,490 7.6 -14.1°
Sets 15:03:52 0° 13° (NNE) 3,425 8.6 -14.7°
